Regional Weather Roundup
Issued by NWS Albany, NY

Home | Current Version | Previous Version | Text Only | Print | Product List | Glossary On
Versions: 1 2 3 4 5 6 7 8 9 10 11 12 13 14 15 16 17 18 19 20 21 22 23 24 25 26 27 28 29 30 31 32 33 34 35 36 37 38 39 40 41 42 43 44 45 46 47 48 49 50
000
ASUS41 KALY 112010
RWRALY

NEW YORK STATE HOURLY WEATHER ROUNDUP
NATIONAL WEATHER SERVICE ALBANY NY
400 PM EDT FRI JUL 11 2014

NOTE: "FAIR" INDICATES FEW OR NO CLOUDS BELOW 12,000 FEET WITH NO
SIGNIFICANT WEATHER AND/OR NO OBSTRUCTIONS TO VISIBILITY.

NYZ032-033-038>043-046>054-057>066-NYZ062>081-112100-
EAST


CITY           SKY/WX    TMP DP  RH WIND       PRES   REMARKS
ALBANY         MOSUNNY   78  52  40 NW3       30.20F
GLENS FALLS    MOSUNNY   78  53  41 NE6       30.20S
POUGHKEEPSIE   SUNNY     82  51  34 VRB5      30.18F
NEWBURGH       MOSUNNY   79  54  41 VRB6      30.21F
MONTGOMERY     SUNNY     81  57  43 NW5       30.19F
WHITE PLAINS   MOSUNNY   82  57  42 NW3       30.19S
ISLIP          MOSUNNY   81  60  48 S12       30.18R
NEW YORK CITY  PTSUNNY   83  56  39 NE10      30.17S
CENTRAL PARK   MOSUNNY   84  57  39 NE6       30.20F
$$

NYZ005>009-017-018-044>046-055-056-112100-
CENTRAL


CITY           SKY/WX    TMP DP  RH WIND       PRES   REMARKS
FULTON         SUNNY     78  54  43 VRB5      30.21F
SYRACUSE       MOSUNNY   80  51  36 CALM      30.21F
ROME           PTSUNNY   78  53  41 VRB6      30.21F
ELMIRA         SUNNY     81  55  40 NW3       30.20F
BINGHAMTON     PTSUNNY   76  54  46 N5        30.24F
$$

NYZ026>034-041>043-112100-
NORTH


CITY           SKY/WX    TMP DP  RH WIND       PRES   REMARKS
WATERTOWN      SUNNY     77  51  40 W8        30.21F
FORT DRUM      NOT AVBL
MASSENA        SUNNY     77  55  46 W9        30.20F
SARANAC LAKE   MOSUNNY   72  48  42 VRB6      30.23F
PLATTSBURGH    SUNNY     75  51  43 E6        30.20F
$$

NYZ001>004-010>016-019>021-112100-
WEST


CITY           SKY/WX    TMP DP  RH WIND       PRES   REMARKS
NIAGARA FALLS  MOSUNNY   77  57  50 N10       30.19F
BUFFALO        MOSUNNY   80  54  40 VRB3      30.19F
DUNKIRK        SUNNY     77  56  48 VRB7      30.21F
JAMESTOWN      MOSUNNY   77  61  57 N6        30.23S
WELLSVILLE     PTSUNNY   78  54  43 W5        30.25F
ROCHESTER      MOSUNNY   79  56  45 NE10      30.21F
PENN YAN       SUNNY     78  55  44 VRB6      30.22F
$$

             KEY
       WCI = WIND CHILL INDEX
       VSB = VISIBILITY
       HX  = HEAT INDEX
$$



USA.gov is the U.S. government's official web portal to all federal, state and local government web resources and services.